Fort Myers, FL

4:28 AM EST on November 18, 2017 (GMT -0500)
Page

Weather History for KFMY - October, 2012

Change the Weather History Date:

Monday, October 1, 2012

  Actual Average Record
Temperature  
Mean Temperature 83 °F 81 °F  
Max Temperature 89 °F 89 °F 95 °F (1986)
Min Temperature 76 °F 73 °F 55 °F (1920)
Degree Days  
Heating Degree Days 0 0  
Month to date heating degree days 0 0  
Since 1 July heating degree days 0 0  
Cooling Degree Days 18 16  
Month to date cooling degree days 18 16  
Year to date cooling degree days 3694 3262  
Growing Degree Days 32 (Base 50)    
Moisture  
Dew Point 74 °F    
Average Humidity 82    
Maximum Humidity 91    
Minimum Humidity 59    
Precipitation  
Precipitation 0.35 in 0.17 in 6.16 in (1951)
Month to date precipitation 0.35 0.17  
Year to date precipitation 42.19 49.55  
Sea Level Pressure  
Sea Level Pressure 29.80 in    
Wind  
Wind Speed 6 mph (SSE)    
Max Wind Speed 14 mph    
Max Gust Speed 20 mph    
Visibility 9 miles    
Events Rain    
T = Trace of Precipitation, MM = Missing Value Source: NWS Daily Summary

Daily Weather History Graph

Daily Weather History Graph

Search for Another Location

Airport or City:

Trip Planner

Search our weather history database for the weather conditions in past years. The results will help you decide how hot, cold, wet, or windy it might be!

Date:

Astronomy

Oct. 01, 2012 Rise Set
Actual Time 7:20 AM EDT 7:13 PM EDT
Civil Twilight 6:57 AM EDT 7:36 PM EDT
Nautical Twilight 6:30 AM EDT 8:03 PM EDT
Astronomical Twilight 6:03 AM EDT 8:30 PM EDT
Moon 8:04 PM EDT (10/1) 8:35 AM EDT (10/1)
Length of Visible Light 12h 39m
Length of Day
11h 53m
Full, 98% of the Moon is Illuminated
Oct 1
Full
Oct 8
Last Quarter
Oct 15
New
Oct 21
First Quarter
Oct 29
Full

Hourly Weather History & Observations

Time (EDT) Temp. Heat Index Dew Point Humidity Pressure Visibility Wind Dir Wind Speed Gust Speed Precip Events Conditions
12:53 AM 78.1 °F - 73.9 °F 87% 29.83 in 10.0 mi East 3.5 mph - N/A   Clear
1:53 AM 78.1 °F - 73.0 °F 84% 29.81 in 10.0 mi Calm Calm - N/A   Clear
2:53 AM 77.0 °F - 73.9 °F 90% 29.79 in 10.0 mi ESE 3.5 mph - N/A   Clear
3:53 AM 77.0 °F - 73.9 °F 90% 29.78 in 10.0 mi SSE 4.6 mph - N/A   Scattered Clouds
4:53 AM 78.1 °F - 73.9 °F 87% 29.78 in 10.0 mi Calm Calm - N/A   Mostly Cloudy
5:16 AM 78.8 °F - 73.4 °F 83% 29.77 in 10.0 mi SE 3.5 mph - N/A   Overcast
5:40 AM 78.8 °F - 73.4 °F 83% 29.78 in 10.0 mi SW 6.9 mph - N/A   Overcast
5:53 AM 77.0 °F - 73.9 °F 90% 29.78 in 4.0 mi South 4.6 mph - 0.02 in Rain Light Rain
6:04 AM 77.0 °F - 73.4 °F 89% 29.77 in 9.0 mi SSW 3.5 mph - 0.01 in Rain Light Rain
6:11 AM 77.0 °F - 73.4 °F 89% 29.77 in 10.0 mi Calm Calm - 0.01 in   Mostly Cloudy
6:53 AM 77.0 °F - 75.0 °F 94% 29.78 in 10.0 mi Calm Calm - 0.01 in   Partly Cloudy
7:53 AM 78.1 °F - 75.0 °F 90% 29.78 in 10.0 mi SE 3.5 mph - N/A   Clear
8:53 AM 80.1 °F 85.1 °F 75.0 °F 85% 29.80 in 10.0 mi SSE 6.9 mph - N/A   Clear
9:53 AM 82.0 °F 88.6 °F 75.0 °F 79% 29.81 in 10.0 mi South 6.9 mph - N/A   Clear
10:53 AM 84.0 °F 91.9 °F 75.0 °F 74% 29.82 in 10.0 mi South 8.1 mph - N/A   Mostly Cloudy
11:53 AM 86.0 °F 95.1 °F 75.0 °F 70% 29.83 in 10.0 mi South 6.9 mph - N/A   Mostly Cloudy
12:10 PM 86.0 °F 93.4 °F 73.4 °F 66% 29.82 in 10.0 mi SSW 10.4 mph - N/A   Scattered Clouds
12:53 PM 86.0 °F 95.1 °F 75.0 °F 70% 29.82 in 10.0 mi SSW 10.4 mph - N/A   Mostly Cloudy
1:00 PM 86.0 °F 93.4 °F 73.4 °F 66% 29.81 in 10.0 mi SSW 8.1 mph - N/A   Partly Cloudy
1:53 PM 87.1 °F 94.5 °F 73.0 °F 63% 29.79 in 10.0 mi SW 9.2 mph - N/A   Scattered Clouds
2:42 PM 87.8 °F 95.6 °F 73.4 °F 62% 29.77 in 10.0 mi SW 5.8 mph 17.3 mph N/A   Mostly Cloudy
2:49 PM 87.8 °F 95.6 °F 73.4 °F 62% 29.77 in 10.0 mi SW 8.1 mph 18.4 mph N/A   Mostly Cloudy
2:53 PM 88.0 °F 94.7 °F 72.0 °F 59% 29.77 in 10.0 mi SSW 8.1 mph 18.4 mph N/A   Scattered Clouds
3:53 PM 87.1 °F 93.6 °F 72.0 °F 61% 29.77 in 10.0 mi SSW 8.1 mph - N/A   Scattered Clouds
7:53 PM 80.1 °F 85.8 °F 77.0 °F 90% 29.81 in 10.0 mi SSE 5.8 mph - 0.00 in   Partly Cloudy
8:53 PM 79.0 °F - 75.9 °F 90% 29.81 in 10.0 mi SE 4.6 mph - N/A   Clear
9:29 PM 78.8 °F - 75.2 °F 89% 29.81 in 10.0 mi SE 5.8 mph - 0.00 in   Mostly Cloudy
9:39 PM 78.8 °F - 75.2 °F 89% 29.82 in 9.0 mi SE 6.9 mph - 0.00 in Rain Light Rain
9:53 PM 78.1 °F - 75.9 °F 93% 29.83 in 10.0 mi SE 5.8 mph - 0.00 in   Mostly Cloudy
10:05 PM 78.8 °F - 75.2 °F 89% 29.83 in 10.0 mi SSE 9.2 mph - N/A   Mostly Cloudy
10:28 PM 78.8 °F - 75.2 °F 89% 29.83 in 10.0 mi SE 8.1 mph - N/A   Mostly Cloudy
10:40 PM 78.8 °F - 75.2 °F 89% 29.83 in 10.0 mi SE 6.9 mph - N/A   Mostly Cloudy
10:49 PM 78.8 °F - 75.2 °F 89% 29.83 in 5.0 mi SE 8.1 mph - 0.01 in Rain Rain
10:53 PM 78.1 °F - 75.9 °F 93% 29.84 in 5.0 mi SSE 6.9 mph - 0.01 in Rain Light Rain
11:01 PM 78.8 °F - 75.2 °F 89% 29.83 in 10.0 mi SE 9.2 mph - 0.01 in Rain Light Rain
11:09 PM 78.8 °F - 75.2 °F 89% 29.83 in 10.0 mi SSE 8.1 mph - 0.01 in   Overcast
11:19 PM 78.8 °F - 75.2 °F 89% 29.83 in 4.0 mi SSE 5.8 mph - 0.03 in Rain Rain
11:53 PM 78.1 °F - 75.9 °F 93% 29.85 in 10.0 mi SSE 6.9 mph - 0.03 in   Clear